Cosmos 1606 - Orbit

View from above orbital plane
View from above orbital plane
View from above satellite
View from above satellite

Ground track
Ground track

The orbit data is extracted from the following two-line orbital elements,

1 15369U 84111A   13142.80522234  .00002864  00000-0  18717-3 0  2547
2 15369 082.5078 138.0588 0012851 011.0914 349.0594 15.07383617555800
Epoch (UTC): 22 May 2013 19:19:31
Eccentricity: 0.0012851
inclination: 82.5078°
perigee height: 535 km
apogee height: 553 km
right ascension of ascending node: 138.0588°
argument of perigee: 11.0914°
revolutions per day: 15.07383617
mean anomaly at epoch: 349.0594°
orbit number at epoch: 55580

The dashed part of the orbit path shows where the satellite is in the earth's shadow,  

Developed and maintained by Chris Peat, Heavens-Above GmbH. Please read the updated FAQ before sending e-mail. Imprint. DLR